Location: Gungolding
(48.9246°N, 11.3502°E)
Time: 16:18:21
(UTC+01:00)

Vanguard 1 - All Passes

Search period start: 28 March 2020 00:00
Search period end: 07 April 2020 01:00
Orbit: 649 x 3834 km, 34.2° (Epoch: 27 March)

Date Brightness Start Highest point End Pass type
(mag) Time Alt. Az. Time Alt. Az. Time Alt. Az.
28 Mar - 00:11:22 10° SW 00:19:30 35° SSE 00:33:06 10° E visible
28 Mar - 02:29:44 10° WSW 02:40:51 44° S 02:59:14 10° ESE visible
28 Mar - 04:50:21 10° W 05:03:46 34° SSW 05:22:26 10° SSE visible
28 Mar - 07:16:24 10° WSW 07:26:25 16° SW 07:37:35 10° SSW daylight
28 Mar - 22:16:02 10° S 22:20:48 17° SE 22:27:15 10° ESE visible
29 Mar - 00:31:41 10° SW 00:40:05 38° SSE 00:54:24 10° ESE visible
29 Mar - 03:50:28 10° WSW 04:01:43 42° S 04:20:00 10° SE visible
29 Mar - 06:11:42 10° W 06:24:35 29° SSW 06:41:55 10° SSE visible
29 Mar - 08:43:17 10° WSW 08:46:54 11° SW 08:50:38 10° SW daylight
29 Mar - 23:35:26 10° SSW 23:41:00 22° SE 23:49:10 10° ESE visible
30 Mar - 01:52:07 10° SW 02:00:45 40° S 02:15:34 10° ESE visible
30 Mar - 04:11:18 10° WSW 04:22:37 39° SSW 04:40:31 10° SE visible
30 Mar - 06:33:24 10° WSW 06:45:21 24° SSW 07:00:48 10° S daylight
30 Mar - 23:55:16 10° SSW 00:01:20 26° SSE 00:10:43 10° ESE visible
31 Mar - 02:12:40 10° WSW 02:21:29 40° S 02:36:37 10° ESE visible
31 Mar - 04:32:16 10° WSW 04:43:30 35° SSW 05:00:45 10° SE visible
31 Mar - 06:55:43 10° WSW 07:06:05 19° SW 07:18:49 10° S daylight
01 Apr - 00:15:21 10° SW 00:21:46 30° SSE 00:32:04 10° ESE visible
01 Apr - 02:33:18 10° WSW 02:42:16 39° S 02:57:31 10° ESE visible
01 Apr - 04:53:24 10° WSW 05:04:22 30° SSW 05:20:36 10° SSE visible
01 Apr - 07:19:27 10° WSW 07:26:46 14° SW 07:35:08 10° SSW daylight
01 Apr - 22:20:49 10° SSE 22:23:30 12° SE 22:26:41 10° ESE night (unlit)
02 Apr - 00:35:38 10° SW 00:42:18 33° SSE 00:53:17 10° ESE visible
02 Apr - 02:54:02 10° WSW 03:03:05 37° S 03:18:14 10° SE visible
02 Apr - 05:14:49 10° WSW 05:25:14 26° SSW 05:39:58 10° SSE visible
02 Apr - 22:39:49 10° S 22:43:44 17° SE 22:48:54 10° ESE night (unlit)
03 Apr - 00:56:04 10° SW 01:02:56 34° S 01:14:23 10° ESE visible
03 Apr - 03:14:52 10° WSW 03:23:56 34° S 03:38:41 10° SE visible
03 Apr - 05:36:38 10° WSW 05:46:04 20° SSW 05:58:38 10° S visible
03 Apr - 22:59:31 10° SSW 23:04:04 21° SSE 23:10:29 10° ESE night (unlit)
04 Apr - 01:16:36 10° WSW 01:23:37 34° S 01:35:21 10° ESE visible
04 Apr - 03:35:52 10° WSW 03:44:48 30° SSW 03:58:49 10° SE visible
04 Apr - 05:59:21 10° WSW 06:06:52 15° SW 06:16:08 10° S visible
04 Apr - 23:19:34 10° SSW 23:24:30 24° SSE 23:31:48 10° ESE night (unlit)
05 Apr - 01:37:14 10° WSW 01:44:21 33° S 01:56:10 10° SE visible
05 Apr - 03:57:04 10° WSW 04:05:40 25° SSW 04:18:32 10° SSE visible
05 Apr - 06:25:44 10° SW 06:27:39 10° SW 06:29:40 10° SSW daylight
05 Apr - 23:39:50 10° SW 23:45:02 26° SSE 23:52:56 10° ESE night (unlit)
06 Apr - 01:57:59 10° WSW 02:05:08 31° S 02:16:46 10° SE visible
06 Apr - 04:18:35 10° WSW 04:26:33 21° SSW 04:37:41 10° SSE visible
06 Apr - 21:44:31 10° S 21:46:43 12° SSE 21:49:17 10° SE visible
07 Apr - 00:00:15 10° SW 00:05:37 28° S 00:13:56 10° ESE night (unlit)
